Regional Weather Roundup
Issued by NWS

Home | Current Version | Previous Version | Graphics & Text | Print | Product List | Glossary On
Versions: 1 2 3 4 5 6 7 8 9 10 11 12 13 14 15 16 17 18 19 20 21 22 23 24 25 26 27 28 29 30 31 32 33 34 35 36 37 38 39 40 41 42 43 44 45 46 47 48 49 50
000
ASUS43 KMKX 082011
RWRWI

WISCONSIN REGIONAL WEATHER ROUNDUP
NATIONAL WEATHER SERVICE MILWAUKEE/SULLIVAN WI
200 PM CST THU DEC 08 2016

NOTE: "FAIR" INDICATES FEW OR NO CLOUDS BELOW 12,000 FEET WITH NO
SIGNIFICANT WEATHER AND/OR OBSTRUCTIONS TO VISIBILITY.

WIZ001-002-006>008-014>016-023>028-082100-
NORTHWEST WISCONSIN

CITY           SKY/WX    TMP DP  RH WIND       PRES   REMARKS
SUPERIOR ARPT  CLOUDY    26  16  67 NW15G23   30.32R WCI  13
ASHLAND        MOSUNNY   28  19  69 W16       30.26R WCI  16
HAYWARD        CLOUDY    24  15  68 NW7       30.27R WCI  16
SIREN          CLOUDY    24  15  67 NW15      30.32R WCI  12
CUMBERLAND     CLOUDY    23  14  68 NW12G17   30.28S WCI  12
RICE LAKE      CLOUDY    24  16  71 NW12G17   30.30S WCI  13
CHETEK         CLOUDY    24  17  73 NW5       30.29S WCI  18
LADYSMITH      CLOUDY    25  17  73 W15       30.27R WCI  12
EAU CLAIRE     CLOUDY    25  15  66 NW13      30.30R WCI  14
MENOMONIE      CLOUDY    26  16  65 W14       30.32R WCI  15
NEW RICHMOND   CLOUDY    24  16  69 W15       30.33R WCI  12
OSCEOLA        CLOUDY    25  17  70 W12       30.37R WCI  14
$$

WIZ003>005-009-010-017-018-082100-
NORTH CENTRAL WISCONSIN

CITY           SKY/WX    TMP DP  RH WIND       PRES   REMARKS
MANITOWISH WTR LGT SNOW  23  22  96 NW9       30.14R WCI  13
ARBOR VITAE    CLOUDY    27  21  80 N13       30.13R WCI  16
WOODRUFF       CLOUDY    27  21  80 N13       30.13R WCI  16
RHINELANDER    FLURRIES  26  21  81 W14G20    30.14R WCI  14
EAGLE RIVER    MOSUNNY   25  18  74 N10G16    30.11R WCI  15
LAND O LAKES   FLURRIES  26  20  80 NW9       30.12R WCI  16
PHILLIPS       CLOUDY    24  16  70 NW12      30.18R WCI  13
TOMAHAWK       CLOUDY    26  16  65 NW10G20   30.16R WCI  17
MEDFORD        FLURRIES  23  15  72 W13G18    30.20R WCI  11
MERRILL        PTSUNNY   26  15  64 NW9G18    30.18R WCI  17
$$

WIZ029-030-035-036-043>047-082100-
CENTRAL WISCONSIN

CITY           SKY/WX    TMP DP  RH WIND       PRES   REMARKS
WAUSAU         CLOUDY    25  16  68 W16       30.18R WCI  12
MOSINEE        NOT AVBL
MARSHFIELD     FLURRIES  23  15  71 NW17G24   30.22R WCI   9
STEVENS POINT  CLOUDY    24  15  68 W10G17    30.22R WCI  13
WAUPACA        CLOUDY    29  18  62 W16       30.20R WCI  18
WAUTOMA        FLURRIES  25  18  74 W17       30.24R WCI  12
WISC RAPIDS    CLOUDY    25  17  72 NW14      30.25R WCI  13
CAMP DOUGLAS   FLURRIES  25  16  68 NW14      30.28R WCI  13
$$

WIZ011>013-019>022-031-037>040-048>050-082100-
NORTHEAST WISCONSIN

CITY           SKY/WX    TMP DP  RH WIND       PRES   REMARKS
ANTIGO         FLURRIES  25  18  77 NW17G24   30.13R WCI  11
SHAWANO        CLOUDY    32  18  58 W14       30.16R WCI  22
OCONTO         CLOUDY    32  17  54 W12G20    30.12R WCI  23
STURGEON BAY   CLOUDY    33  19  56 W16G22    30.10R WCI  23
GREEN BAY      FLURRIES  33  21  61 NW15      30.15R WCI  23
MANITOWOC      NOT AVBL
APPLETON       PTSUNNY   28  16  59 W15       30.16R WCI  17
CLINTONVILLE   PTSUNNY   30  16  55 NW16      30.16R WCI  19
OSHKOSH        CLOUDY    26  17  68 W13G25    30.20R WCI  15
$$

WIZ032>034-041-042-053>061-082100-
SOUTHWEST WISCONSIN

CITY           SKY/WX    TMP DP  RH WIND       PRES   REMARKS
LA CROSSE      FLURRIES  26  16  65 NW14G24   30.34R WCI  14
SPARTA         FLURRIES  24  17  75 W12G17    30.31R WCI  13
VIROQUA        CLOUDY    22  16  78 W15G22    30.29R WCI   8
BOSCOBEL       CLOUDY    25  16  68 W9        30.36R WCI  15
PRAIRIE DU CHI CLOUDY    24  14  65 NW17G26   30.36S WCI  11
PLATTEVILLE    CLOUDY    22  17  80 W16G24    30.33R WCI   8
$$

WIZ056-057-062-063-064-067-068-082100-
SOUTH CENTRAL WISCONSIN

CITY           SKY/WX    TMP DP  RH WIND       PRES   REMARKS
REEDSBURG      CLOUDY    23  16  74 W10G22    30.28R WCI  12
BARABOO/DELLS  CLOUDY    23  16  74 NW12      30.27R WCI  11
LONE ROCK      NOT AVBL
MINERAL POINT  FLURRIES  23  19  86 W10G21    30.29R WCI  12
MADISON        FLURRIES  22  14  71 W12G22    30.28R WCI  10
MIDDLETON      CLOUDY    24  17  75 NW16G22   30.28R WCI  11
WATERTOWN      CLOUDY    23  17  76 NW14G21   30.25R WCI  11
MONROE         CLOUDY    23  16  74 W16G25    30.28R WCI  10
JANESVILLE     CLOUDY    25  16  68 NW16      30.28R WCI  12
$$

WIZ051-052-058>065-066-070>072-082100-
SOUTHEAST WISCONSIN

CITY           SKY/WX    TMP DP  RH WIND       PRES   REMARKS
MILWAUKEE      PTSUNNY   25  14  63 W24G31    30.23R WCI   9
WAUKESHA       CLOUDY    21  14  73 W14G23    30.24R WCI   8
MILWAUKEE/TIMM CLOUDY    25  12  58 W22       30.23R WCI  10
RACINE         MOSUNNY   25  13  60 W22G31    30.24R WCI  10
BURLINGTON     FLURRIES  27  20  75 W14       30.26R WCI  16
KENOSHA        CLOUDY    24  14  65 W18G28    30.25R WCI  10
FOND DU LAC    CLOUDY    26  16  65 W20       30.21R WCI  12
SHEBOYGAN      CLOUDY    27  17  66 W17G28    30.17R WCI  14
WEST BEND      NOT AVBL
JUNEAU         CLOUDY    23  16  74 W10G21    30.24R WCI  12
$$

LSZ147-162-082100-
LAKE SUPERIOR

STATION/POSITION TIME  TEMP    WIND        PRES    WAVE
                       AIR SEA DIR/SP/G            HT/PER
                 (UTC) (F)     (DEG/KT/KT) (MB)    (FT/S)
DEVILS ISLAND    2000   27     310/ 19/ 22 1025.5R
PORT WING        1940   27     310/ 16/ 21 1025.4R
SAXON HARBOR     1930   30     320/ 19/ 22 1023.7R
$$

LMZ867-665-643>646-082100-
LAKE MICHIGAN

STATION/POSITION TIME  TEMP    WIND        PRES    WAVE
                       AIR SEA DIR/SP/G            HT/PER
                 (UTC) (F)     (DEG/KT/KT) (MB)    (FT/S)
CHAMBERS ISLAND  1940   34     300/ 11/ 22 1018.3R
NORTHPORT PIER   2000   33     320/ 20     1018.3
SISTER BAY       1906   34     330/ 24/ 28   N/A
ALGOMA LAKESHORE 1836          300/ 12/ 23   N/A
KEWAUNEE LAKESHO 1948   32     300/ 15/ 19 1019.2R
SHEBOYGAN LAKESH 2000   27     280/ 22/ 25 1022.3R
PORT WASHINGTON  1930   26     290/ 15/ 24 1023.4R
MILWAUKEE LAKESH 1950   25     280/ 19/ 24   N/A
KENOSHA   LAKESH 2000   23     290/ 23/ 29 1023.7
$$

TC  - TEMPERATURE IN CELSIUS
VSB - VISIBILITY IN STATUTE MILES
WCI - WIND CHILL INDEX
HX  - HEAT INDEX




USA.gov is the U.S. government's official web portal to all federal, state and local government web resources and services.